Powrót do katalogu

STARLINK-33688

AktywnyŁącznośćVLEO
NORAD 63483·PAYLOAD·🇺🇸 United States

Wystrzelony Apr 6, 2025 z Cape Canaveral Space Force Station

Loading…

Następne Przeloty (najbliższe 24 godziny)

TLE

ŚwieżeSource: CelesTrak SupGP

Epoka: Sep 15, 2026, 02:18 UTC

1 63483C 25070Z   26258.09631944  .00001210  00000+0  43826-4 0  2585
2 63483  43.0009 270.2770 0001486 263.8470  31.0182 15.27579209    19

Śledź STARLINK-33688 w czasie rzeczywistym z AllMySat

Download on the App Store